Find Kosmos-1251

NORAD ID: 12321 Int'l Des: 1981-022 Owner: GUKOS Country: SU operational
LEOCIRCULAR

リアルタイム位置

3D地球を読み込み中...

Kosmos-1251について

説明を読み込み中...

次回通過

Passes for default location (London). Set your location on the main map for personalized predictions.

高度履歴

Loading altitude history...

軌道要素

1 12321U 81022B 26105.87205529 .00000012 00000-0 17004-3 0 9992
2 12321 74.0280 148.6145 0045154 246.1035 287.3243 12.56489427 69092
Epoch: Apr 15, 2026 • Age: 14 hours

現在のステータス

高度 1454.1 km
速度 7.13 km/s
衛星直下点 -1.18°S, 133.56°E
打ち上げ日 Mar 6, 1981
運用期間 45.1 years
タイプ other

技術仕様

分類 Payload
質量 60.00 kg
乾燥質量 60.00 kg
総質量 60.00 kg
長さ 0.80 m
直径 0.80 m
スパン 0.80 m
形状 Poly
製造者 NPOPM
バスタイプ Strela-1 11F625
フェーズステータス In Orbit
所有者/国 GUKOS/SU

Most Searched